TAM3576 SBBR-SBMO

Flight info

Callsign TAM3576
Flight time 2h 0m
Altitude 35000
Route UGTAK UZ19 LOLIP DCT TEMEV UZ23 ANDIG DCT MCE
Aircraft A321/M-SDE3FGHIRWY/LB1

Departure

Time 2026-04-22 16:22
Airport Presidente Juscelino Kubitschek International Airport (SBBR)

Arrival

Time 2026-04-22 18:22
Airport Zumbi dos Palmares International Airport (SBMO)
Time Latitude Longitude Altitude Speed Heading
2026-04-22 16:04 -15.87279 -47.91980 3470 ft 0 kts 356°
2026-04-22 16:10 -15.87287 -47.91979 3472 ft 4 kts 359°
2026-04-22 16:11 -15.87313 -47.91983 3471 ft 4 kts 24°
2026-04-22 16:11 -15.87332 -47.91998 3470 ft 4 kts 70°
2026-04-22 16:11 -15.87335 -47.92007 3471 ft 0 kts 86°
2026-04-22 16:13 -15.87335 -47.92005 3471 ft 1 kts 86°
2026-04-22 16:13 -15.87333 -47.91976 3471 ft 6 kts 86°
2026-04-22 16:14 -15.87330 -47.91924 3472 ft 9 kts 86°
2026-04-22 16:14 -15.87325 -47.91852 3472 ft 11 kts 86°
2026-04-22 16:14 -15.87319 -47.91762 3472 ft 13 kts 86°
2026-04-22 16:14 -15.87325 -47.91676 3471 ft 10 kts 134°
2026-04-22 16:15 -15.87399 -47.91663 3471 ft 12 kts 181°
2026-04-22 16:15 -15.87486 -47.91658 3469 ft 14 kts 176°
2026-04-22 16:15 -15.87598 -47.91650 3466 ft 18 kts 176°
2026-04-22 16:15 -15.87709 -47.91645 3463 ft 13 kts 191°
2026-04-22 16:16 -15.87740 -47.91727 3463 ft 13 kts 267°
2026-04-22 16:16 -15.87745 -47.91821 3465 ft 13 kts 266°
2026-04-22 16:16 -15.87751 -47.91912 3468 ft 12 kts 266°
2026-04-22 16:16 -15.87756 -47.92000 3469 ft 12 kts 265°
2026-04-22 16:17 -15.87764 -47.92093 3471 ft 14 kts 265°
2026-04-22 16:17 -15.87770 -47.92205 3473 ft 17 kts 266°
2026-04-22 16:17 -15.87779 -47.92334 3475 ft 18 kts 265°
2026-04-22 16:17 -15.87787 -47.92468 3476 ft 19 kts 266°
2026-04-22 16:18 -15.87797 -47.92606 3477 ft 19 kts 266°
2026-04-22 16:18 -15.87805 -47.92744 3478 ft 19 kts 266°
2026-04-22 16:18 -15.87814 -47.92880 3481 ft 19 kts 265°
2026-04-22 16:18 -15.87822 -47.93018 3482 ft 19 kts 265°
2026-04-22 16:19 -15.87832 -47.93154 3486 ft 18 kts 266°
2026-04-22 16:19 -15.87839 -47.93271 3497 ft 15 kts 265°
2026-04-22 16:19 -15.87845 -47.93369 3501 ft 13 kts 267°
2026-04-22 16:19 -15.87852 -47.93479 3503 ft 18 kts 266°
2026-04-22 16:20 -15.87861 -47.93613 3502 ft 19 kts 266°
2026-04-22 16:20 -15.87870 -47.93742 3507 ft 17 kts 265°
2026-04-22 16:20 -15.87878 -47.93859 3516 ft 16 kts 267°
2026-04-22 16:20 -15.87901 -47.93978 3511 ft 17 kts 227°
2026-04-22 16:21 -15.88013 -47.93992 3514 ft 16 kts 176°
2026-04-22 16:21 -15.88062 -47.93936 3514 ft 11 kts 94°
2026-04-22 16:21 -15.88062 -47.93916 3516 ft 8 kts 90°
2026-04-22 16:21 -15.88043 -47.93621 3505 ft 77 kts 86°
2026-04-22 16:22 -15.87915 -47.91705 3789 ft 162 kts 85°
2026-04-22 16:22 -15.87837 -47.90534 4521 ft 163 kts 86°
2026-04-22 16:22 -15.87763 -47.89345 5087 ft 168 kts 86°
2026-04-22 16:23 -15.87585 -47.86612 5463 ft 211 kts 85°
2026-04-22 16:23 -15.87482 -47.85031 5572 ft 234 kts 86°
2026-04-22 16:23 -15.87368 -47.83252 5783 ft 257 kts 86°
2026-04-22 16:24 -15.87246 -47.81368 6341 ft 263 kts 86°
2026-04-22 16:24 -15.86999 -47.77542 7565 ft 269 kts 86°
2026-04-22 16:24 -15.86876 -47.75579 8174 ft 275 kts 86°
2026-04-22 16:25 -15.86752 -47.73585 8810 ft 277 kts 86°
2026-04-22 16:25 -15.86464 -47.69543 10088 ft 284 kts 86°
2026-04-22 16:25 -15.86277 -47.67426 10300 ft 304 kts 86°
2026-04-22 16:26 -15.86072 -47.65163 10431 ft 324 kts 85°
2026-04-22 16:26 -15.85858 -47.62788 10752 ft 335 kts 86°
2026-04-22 16:26 -15.85640 -47.60350 11241 ft 340 kts 85°
2026-04-22 16:26 -15.85179 -47.57961 11809 ft 344 kts 73°
2026-04-22 16:27 -15.84157 -47.55698 12392 ft 348 kts 58°
2026-04-22 16:27 -15.82606 -47.53737 12909 ft 355 kts 45°
2026-04-22 16:27 -15.80623 -47.52180 13455 ft 360 kts 36°
2026-04-22 16:27 -15.78536 -47.50717 13970 ft 363 kts 36°
2026-04-22 16:28 -15.76427 -47.49242 14445 ft 366 kts 37°
2026-04-22 16:28 -15.74301 -47.47749 14922 ft 369 kts 36°
2026-04-22 16:28 -15.72173 -47.46251 15373 ft 371 kts 36°
2026-04-22 16:28 -15.70057 -47.44759 15812 ft 374 kts 37°
2026-04-22 16:29 -15.67888 -47.43230 16250 ft 377 kts 36°
2026-04-22 16:29 -15.65711 -47.41694 16691 ft 379 kts 37°
2026-04-22 16:29 -15.63521 -47.40150 17106 ft 382 kts 37°
2026-04-22 16:29 -15.61310 -47.38596 17495 ft 385 kts 36°
2026-04-22 16:30 -15.59836 -47.37560 17716 ft 388 kts 36°
2026-04-22 16:30 -15.56901 -47.35343 18215 ft 391 kts 44°
2026-04-22 16:30 -15.55043 -47.33290 18542 ft 391 kts 55°
2026-04-22 16:30 -15.53563 -47.30931 18869 ft 391 kts 61°
2026-04-22 16:31 -15.52176 -47.28488 19214 ft 393 kts 61°
2026-04-22 16:31 -15.50776 -47.26041 19565 ft 395 kts 61°
2026-04-22 16:31 -15.49382 -47.23617 19894 ft 397 kts 60°
2026-04-22 16:31 -15.47958 -47.21152 20242 ft 399 kts 61°
2026-04-22 16:32 -15.46524 -47.18675 20561 ft 401 kts 61°
2026-04-22 16:32 -15.45085 -47.16188 20896 ft 402 kts 60°
2026-04-22 16:32 -15.43644 -47.13693 21211 ft 404 kts 60°
2026-04-22 16:32 -15.42198 -47.11182 21527 ft 406 kts 61°
2026-04-22 16:33 -15.40751 -47.08663 21867 ft 407 kts 60°
2026-04-22 16:33 -15.39315 -47.06169 22164 ft 409 kts 61°
2026-04-22 16:33 -15.37850 -47.03625 22480 ft 410 kts 61°
2026-04-22 16:33 -15.36383 -47.01081 22765 ft 412 kts 60°
2026-04-22 16:34 -15.34909 -46.98530 23093 ft 412 kts 60°
2026-04-22 16:34 -15.33427 -46.95962 23377 ft 414 kts 61°
2026-04-22 16:34 -15.31962 -46.93421 23699 ft 414 kts 60°
2026-04-22 16:34 -15.30476 -46.90846 23922 ft 417 kts 60°
2026-04-22 16:35 -15.28982 -46.88254 24156 ft 418 kts 61°
2026-04-22 16:35 -15.27485 -46.85658 24385 ft 420 kts 60°
2026-04-22 16:35 -15.25991 -46.83077 24595 ft 423 kts 61°
2026-04-22 16:35 -15.24479 -46.80461 24831 ft 424 kts 59°
2026-04-22 16:36 -15.22952 -46.77820 25040 ft 427 kts 61°
2026-04-22 16:36 -15.21413 -46.75163 25251 ft 429 kts 60°
2026-04-22 16:36 -15.19872 -46.72508 25475 ft 431 kts 60°
2026-04-22 16:36 -15.18325 -46.69846 25716 ft 432 kts 61°
2026-04-22 16:37 -15.16773 -46.67172 25923 ft 434 kts 61°
2026-04-22 16:37 -15.15234 -46.64515 26143 ft 436 kts 59°
2026-04-22 16:37 -15.13670 -46.61813 26350 ft 438 kts 62°
2026-04-22 16:37 -15.12097 -46.59094 26556 ft 440 kts 60°
2026-04-22 16:38 -15.10517 -46.56362 26758 ft 442 kts 60°
2026-04-22 16:38 -15.09468 -46.54550 26893 ft 444 kts 60°
2026-04-22 16:38 -15.07875 -46.51804 27106 ft 446 kts 61°
2026-04-22 16:38 -15.06271 -46.49039 27320 ft 448 kts 61°
2026-04-22 16:39 -15.04662 -46.46268 27527 ft 450 kts 60°
2026-04-22 16:39 -15.03043 -46.43484 27738 ft 452 kts 61°
2026-04-22 16:39 -15.01432 -46.40717 27942 ft 454 kts 60°
2026-04-22 16:39 -14.99794 -46.37909 28155 ft 456 kts 60°
2026-04-22 16:40 -14.98153 -46.35091 28349 ft 458 kts 61°
2026-04-22 16:40 -14.96498 -46.32247 28564 ft 461 kts 60°
2026-04-22 16:40 -14.93172 -46.26530 28977 ft 465 kts 60°
2026-04-22 16:41 -14.91513 -46.23653 29174 ft 466 kts 63°
2026-04-22 16:41 -14.90163 -46.20614 29376 ft 465 kts 72°
2026-04-22 16:41 -14.89172 -46.17423 29569 ft 467 kts 75°
2026-04-22 16:41 -14.88210 -46.14243 29768 ft 468 kts 74°
2026-04-22 16:42 -14.87226 -46.11012 29959 ft 470 kts 74°
2026-04-22 16:42 -14.86244 -46.07803 30138 ft 472 kts 74°
2026-04-22 16:42 -14.85245 -46.04554 30314 ft 473 kts 74°
2026-04-22 16:42 -14.84248 -46.01313 30503 ft 474 kts 74°
2026-04-22 16:43 -14.83247 -45.98062 30686 ft 474 kts 74°
2026-04-22 16:43 -14.82248 -45.94802 30867 ft 474 kts 75°
2026-04-22 16:43 -14.81263 -45.91581 31041 ft 475 kts 75°
2026-04-22 16:43 -14.80264 -45.88320 31247 ft 474 kts 75°
2026-04-22 16:44 -14.79270 -45.85076 31514 ft 472 kts 75°
2026-04-22 16:44 -14.78278 -45.81841 31796 ft 470 kts 75°
2026-04-22 16:44 -14.77303 -45.78668 32048 ft 468 kts 75°
2026-04-22 16:44 -14.76317 -45.75465 32316 ft 466 kts 75°
2026-04-22 16:45 -14.75334 -45.72266 32577 ft 465 kts 75°
2026-04-22 16:45 -14.74358 -45.69081 32835 ft 463 kts 76°
2026-04-22 16:45 -14.73390 -45.65914 33095 ft 461 kts 76°
2026-04-22 16:45 -14.72422 -45.62758 33359 ft 459 kts 76°
2026-04-22 16:46 -14.71462 -45.59654 33612 ft 458 kts 76°
2026-04-22 16:46 -14.70491 -45.56520 33886 ft 456 kts 76°
2026-04-22 16:46 -14.69526 -45.53407 34111 ft 454 kts 76°
2026-04-22 16:46 -14.68561 -45.50297 34328 ft 453 kts 76°
2026-04-22 16:47 -14.67604 -45.47197 34525 ft 452 kts 76°
2026-04-22 16:47 -14.66651 -45.44101 34719 ft 452 kts 76°
2026-04-22 16:47 -14.65699 -45.41015 34911 ft 451 kts 76°
2026-04-22 16:48 -14.63794 -45.34870 35005 ft 446 kts 76°
2026-04-22 16:48 -14.61916 -45.28810 35002 ft 444 kts 76°
2026-04-22 16:49 -14.60027 -45.22723 35004 ft 444 kts 76°
2026-04-22 16:49 -14.58140 -45.16641 35002 ft 444 kts 76°
2026-04-22 16:50 -14.56270 -45.10599 35001 ft 444 kts 76°
2026-04-22 16:50 -14.54375 -45.04522 35007 ft 445 kts 76°
2026-04-22 16:51 -14.52472 -44.98442 35016 ft 445 kts 76°
2026-04-22 16:51 -14.50576 -44.92350 35014 ft 445 kts 76°
2026-04-22 16:52 -14.48690 -44.86289 35016 ft 446 kts 76°
2026-04-22 16:52 -14.46789 -44.80182 35018 ft 446 kts 76°
2026-04-22 16:53 -14.44894 -44.74115 35015 ft 446 kts 76°
2026-04-22 16:53 -14.42978 -44.68013 35015 ft 446 kts 76°
2026-04-22 16:54 -14.41055 -44.61914 35016 ft 446 kts 76°
2026-04-22 16:54 -14.39148 -44.55843 35017 ft 446 kts 76°
2026-04-22 16:55 -14.37251 -44.49777 35013 ft 446 kts 76°
2026-04-22 16:55 -14.35328 -44.43673 35010 ft 446 kts 76°
2026-04-22 16:56 -14.33410 -44.37580 35009 ft 446 kts 76°
2026-04-22 16:56 -14.31502 -44.31521 35010 ft 447 kts 76°
2026-04-22 16:57 -14.29577 -44.25428 35006 ft 446 kts 76°
2026-04-22 16:57 -14.27655 -44.19329 35002 ft 446 kts 76°
2026-04-22 16:58 -14.26053 -44.14249 35000 ft 447 kts 76°
2026-04-22 16:58 -14.23802 -44.07172 35000 ft 447 kts 76°
2026-04-22 16:59 -14.21870 -44.01080 35003 ft 447 kts 76°
2026-04-22 16:59 -14.19945 -43.94979 34996 ft 447 kts 76°
2026-04-22 17:00 -14.18038 -43.88927 34992 ft 447 kts 76°
2026-04-22 17:00 -14.15135 -43.79777 34995 ft 447 kts 76°
2026-04-22 17:01 -14.13210 -43.73724 34994 ft 447 kts 76°
2026-04-22 17:01 -14.11268 -43.67629 34992 ft 447 kts 76°
2026-04-22 17:02 -14.09325 -43.61535 34991 ft 447 kts 76°
2026-04-22 17:02 -14.07395 -43.55474 34988 ft 447 kts 76°
2026-04-22 17:03 -14.05458 -43.49372 34987 ft 447 kts 76°
2026-04-22 17:03 -14.03509 -43.43275 34987 ft 447 kts 76°
2026-04-22 17:04 -14.01573 -43.37216 34985 ft 448 kts 76°
2026-04-22 17:04 -13.99622 -43.31108 34984 ft 448 kts 76°
2026-04-22 17:05 -13.97673 -43.25036 34984 ft 448 kts 76°
2026-04-22 17:05 -13.95710 -43.18925 34981 ft 448 kts 76°
2026-04-22 17:06 -13.93764 -43.12863 34985 ft 448 kts 76°
2026-04-22 17:06 -13.91811 -43.06761 34987 ft 448 kts 76°
2026-04-22 17:07 -13.89848 -43.00654 34992 ft 448 kts 76°
2026-04-22 17:07 -13.87895 -42.94602 34987 ft 448 kts 76°
2026-04-22 17:08 -13.85926 -42.88506 34997 ft 448 kts 76°
2026-04-22 17:08 -13.83967 -42.82414 35001 ft 448 kts 76°
2026-04-22 17:09 -13.82004 -42.76315 35010 ft 448 kts 76°
2026-04-22 17:09 -13.80043 -42.70260 35009 ft 448 kts 76°
2026-04-22 17:10 -13.78070 -42.64171 35022 ft 448 kts 76°
2026-04-22 17:10 -13.76097 -42.58067 35023 ft 448 kts 76°
2026-04-22 17:11 -13.74127 -42.51972 35024 ft 448 kts 76°
2026-04-22 17:11 -13.72169 -42.45919 35024 ft 448 kts 76°
2026-04-22 17:12 -13.70193 -42.39831 35027 ft 449 kts 76°
2026-04-22 17:12 -13.68198 -42.33735 35024 ft 449 kts 76°
2026-04-22 17:13 -13.66218 -42.27645 35026 ft 449 kts 76°
2026-04-22 17:13 -13.64256 -42.21589 35025 ft 449 kts 76°
2026-04-22 17:14 -13.62270 -42.15500 35026 ft 449 kts 76°
2026-04-22 17:14 -13.60280 -42.09397 35024 ft 449 kts 76°
2026-04-22 17:15 -13.58293 -42.03306 35024 ft 449 kts 76°
2026-04-22 17:15 -13.56306 -41.97249 35035 ft 449 kts 76°
2026-04-22 17:16 -13.54308 -41.91137 35034 ft 449 kts 76°
2026-04-22 17:16 -13.52327 -41.85077 35036 ft 449 kts 76°
2026-04-22 17:17 -13.50331 -41.78979 35038 ft 450 kts 76°
2026-04-22 17:17 -13.48336 -41.72909 35044 ft 450 kts 76°
2026-04-22 17:18 -13.46326 -41.66816 35043 ft 450 kts 76°
2026-04-22 17:18 -13.44318 -41.60711 35050 ft 450 kts 76°
2026-04-22 17:19 -13.40340 -41.48557 35055 ft 450 kts 75°
2026-04-22 17:20 -13.36324 -41.36412 35054 ft 449 kts 75°
2026-04-22 17:21 -13.33319 -41.27299 35054 ft 450 kts 75°
2026-04-22 17:22 -13.30642 -41.19202 35045 ft 450 kts 75°
2026-04-22 17:23 -13.27624 -41.10054 35033 ft 450 kts 75°
2026-04-22 17:23 -13.24615 -41.00974 35024 ft 450 kts 75°
2026-04-22 17:24 -13.22592 -40.94887 35025 ft 450 kts 75°
2026-04-22 17:24 -13.20569 -40.88799 35022 ft 450 kts 75°
2026-04-22 17:25 -13.18561 -40.82756 35020 ft 450 kts 75°
2026-04-22 17:25 -13.16544 -40.76678 35017 ft 450 kts 75°
2026-04-22 17:26 -13.14524 -40.70587 35019 ft 450 kts 75°
2026-04-22 17:26 -13.12510 -40.64531 35022 ft 450 kts 75°
2026-04-22 17:27 -13.10487 -40.58456 35015 ft 450 kts 74°
2026-04-22 17:27 -13.08462 -40.52402 35018 ft 450 kts 74°
2026-04-22 17:28 -13.06430 -40.46320 35020 ft 451 kts 74°
2026-04-22 17:28 -13.04397 -40.40222 35018 ft 451 kts 74°
2026-04-22 17:29 -13.02365 -40.34130 35020 ft 451 kts 74°
2026-04-22 17:29 -13.00317 -40.28040 35022 ft 451 kts 74°
2026-04-22 17:30 -12.98283 -40.21982 35025 ft 452 kts 74°
2026-04-22 17:30 -12.96239 -40.15880 35020 ft 452 kts 74°
2026-04-22 17:31 -12.94190 -40.09775 35025 ft 452 kts 74°
2026-04-22 17:31 -12.92142 -40.03711 35025 ft 453 kts 74°
2026-04-22 17:32 -12.90079 -39.97601 35033 ft 453 kts 73°
2026-04-22 17:32 -12.88017 -39.91482 35025 ft 453 kts 73°
2026-04-22 17:33 -12.85949 -39.85361 35026 ft 453 kts 73°
2026-04-22 17:33 -12.83884 -39.79293 35030 ft 454 kts 73°
2026-04-22 17:34 -12.81778 -39.73182 35033 ft 454 kts 73°
2026-04-22 17:34 -12.79676 -39.67083 35032 ft 454 kts 73°
2026-04-22 17:35 -12.77564 -39.60977 35030 ft 453 kts 73°
2026-04-22 17:35 -12.75469 -39.54925 35035 ft 453 kts 72°
2026-04-22 17:36 -12.73364 -39.48826 35024 ft 454 kts 72°
2026-04-22 17:36 -12.71254 -39.42722 35025 ft 454 kts 72°
2026-04-22 17:37 -12.69150 -39.36650 35024 ft 454 kts 72°
2026-04-22 17:37 -12.67036 -39.30542 35026 ft 455 kts 72°
2026-04-22 17:38 -12.64919 -39.24427 35024 ft 455 kts 72°
2026-04-22 17:38 -12.62913 -39.18270 35024 ft 455 kts 74°
2026-04-22 17:39 -12.61042 -39.12120 35031 ft 455 kts 75°
2026-04-22 17:40 -12.58192 -39.02838 35024 ft 455 kts 73°
2026-04-22 17:40 -12.56251 -38.96647 35025 ft 455 kts 73°
2026-04-22 17:41 -12.54322 -38.90509 35022 ft 455 kts 73°
2026-04-22 17:41 -12.52378 -38.84319 35023 ft 455 kts 74°
2026-04-22 17:42 -12.50440 -38.78172 35025 ft 456 kts 73°
2026-04-22 17:42 -12.48493 -38.71996 35026 ft 456 kts 73°
2026-04-22 17:43 -12.46560 -38.65825 35032 ft 455 kts 74°
2026-04-22 17:43 -12.44625 -38.59644 35033 ft 455 kts 73°
2026-04-22 17:44 -12.42685 -38.53474 35030 ft 455 kts 73°
2026-04-22 17:44 -12.40748 -38.47345 35029 ft 455 kts 73°
2026-04-22 17:45 -12.38794 -38.41177 35031 ft 455 kts 74°
2026-04-22 17:45 -12.36847 -38.35000 35032 ft 455 kts 74°
2026-04-22 17:46 -12.34925 -38.28883 35029 ft 454 kts 73°
2026-04-22 17:46 -12.32981 -38.22733 35032 ft 454 kts 73°
2026-04-22 17:47 -12.31027 -38.16584 35033 ft 454 kts 73°
2026-04-22 17:47 -12.28740 -38.10571 35031 ft 455 kts 60°
2026-04-22 17:48 -12.25537 -38.06312 35028 ft 456 kts 44°
2026-04-22 17:48 -12.19643 -38.01755 35025 ft 457 kts 36°
2026-04-22 17:49 -12.14458 -37.97966 35025 ft 458 kts 36°
2026-04-22 17:49 -12.09265 -37.94169 35029 ft 457 kts 36°
2026-04-22 17:50 -12.04082 -37.90382 35034 ft 457 kts 36°
2026-04-22 17:50 -11.98941 -37.86637 35031 ft 456 kts 36°
2026-04-22 17:51 -11.93761 -37.82874 35028 ft 455 kts 36°
2026-04-22 17:51 -11.88597 -37.79116 35025 ft 455 kts 36°
2026-04-22 17:52 -11.83466 -37.75391 35026 ft 454 kts 35°
2026-04-22 17:52 -11.78308 -37.71655 35024 ft 454 kts 35°
2026-04-22 17:53 -11.73158 -37.67925 35029 ft 453 kts 35°
2026-04-22 17:53 -11.68023 -37.64209 35024 ft 452 kts 35°
2026-04-22 17:54 -11.62902 -37.60492 35019 ft 451 kts 35°
2026-04-22 17:54 -11.57776 -37.56787 35015 ft 451 kts 35°
2026-04-22 17:55 -11.53539 -37.53730 35015 ft 450 kts 35°
2026-04-22 17:55 -11.47557 -37.49411 35007 ft 450 kts 35°
2026-04-22 17:56 -11.42472 -37.45737 35012 ft 449 kts 35°
2026-04-22 17:56 -11.37368 -37.42046 35012 ft 448 kts 34°
2026-04-22 17:57 -11.32266 -37.38365 35011 ft 448 kts 34°
2026-04-22 17:57 -11.27216 -37.34726 35010 ft 447 kts 34°
2026-04-22 17:58 -11.22137 -37.31063 35003 ft 447 kts 34°
2026-04-22 17:58 -11.17054 -37.27401 34991 ft 446 kts 34°
2026-04-22 17:59 -11.12010 -37.23769 34980 ft 446 kts 34°
2026-04-22 17:59 -11.06925 -37.20100 34961 ft 446 kts 33°
2026-04-22 18:00 -11.02704 -37.17054 34955 ft 446 kts 33°
2026-04-22 18:00 -10.96792 -37.12808 34957 ft 447 kts 33°
2026-04-22 18:01 -10.91701 -37.09164 34958 ft 447 kts 33°
2026-04-22 18:01 -10.86632 -37.05532 34965 ft 447 kts 33°
2026-04-22 18:02 -10.81534 -37.01886 34968 ft 448 kts 33°
2026-04-22 18:02 -10.76425 -36.98232 34968 ft 448 kts 33°
2026-04-22 18:03 -10.71325 -36.94589 34939 ft 452 kts 33°
2026-04-22 18:03 -10.66152 -36.90887 34948 ft 455 kts 33°
2026-04-22 18:04 -10.60976 -36.87180 34948 ft 458 kts 33°
2026-04-22 18:04 -10.55755 -36.83442 34953 ft 459 kts 33°
2026-04-22 18:05 -10.51393 -36.80328 34963 ft 461 kts 33°
2026-04-22 18:05 -10.45272 -36.75957 34969 ft 462 kts 33°
2026-04-22 18:05 -10.42653 -36.74086 34289 ft 456 kts 33°
2026-04-22 18:06 -10.40895 -36.72832 33477 ft 455 kts 33°
2026-04-22 18:06 -10.38337 -36.71007 32085 ft 455 kts 33°
2026-04-22 18:06 -10.35755 -36.69166 30734 ft 453 kts 34°
2026-04-22 18:06 -10.33180 -36.67331 29371 ft 450 kts 34°
2026-04-22 18:07 -10.30626 -36.65510 27754 ft 449 kts 35°
2026-04-22 18:07 -10.28081 -36.63694 26335 ft 445 kts 35°
2026-04-22 18:07 -10.25565 -36.61900 25072 ft 438 kts 35°
2026-04-22 18:07 -10.23085 -36.60133 24434 ft 432 kts 35°
2026-04-22 18:08 -10.20621 -36.58379 24140 ft 432 kts 35°
2026-04-22 18:08 -10.18146 -36.56618 23639 ft 436 kts 35°
2026-04-22 18:08 -10.15702 -36.54828 23086 ft 437 kts 40°
2026-04-22 18:08 -10.13569 -36.52620 22555 ft 438 kts 49°
2026-04-22 18:09 -10.11600 -36.50290 22018 ft 433 kts 50°
2026-04-22 18:09 -10.09647 -36.47971 21481 ft 428 kts 50°
2026-04-22 18:09 -10.07715 -36.45678 20939 ft 424 kts 50°
2026-04-22 18:09 -10.05834 -36.43447 20174 ft 419 kts 50°
2026-04-22 18:10 -10.03963 -36.41226 19155 ft 409 kts 50°
2026-04-22 18:10 -10.02126 -36.39049 18189 ft 402 kts 50°
2026-04-22 18:10 -10.00305 -36.36893 17440 ft 403 kts 50°
2026-04-22 18:10 -9.98435 -36.34762 16736 ft 410 kts 44°
2026-04-22 18:11 -9.96210 -36.32947 15305 ft 408 kts 38°
2026-04-22 18:11 -9.93967 -36.31253 13752 ft 403 kts 37°
2026-04-22 18:11 -9.91711 -36.29589 12096 ft 397 kts 37°
2026-04-22 18:11 -9.89477 -36.27954 11050 ft 395 kts 37°
2026-04-22 18:12 -9.87242 -36.26318 10536 ft 395 kts 37°
2026-04-22 18:12 -9.85054 -36.24706 10259 ft 370 kts 38°
2026-04-22 18:12 -9.83106 -36.23267 10116 ft 332 kts 38°
2026-04-22 18:12 -9.81329 -36.21945 9934 ft 302 kts 38°
2026-04-22 18:13 -9.79671 -36.20705 9316 ft 291 kts 38°
2026-04-22 18:13 -9.78061 -36.19496 8577 ft 285 kts 38°
2026-04-22 18:13 -9.76474 -36.18304 7822 ft 282 kts 39°
2026-04-22 18:13 -9.74894 -36.17119 7097 ft 281 kts 38°
2026-04-22 18:14 -9.73319 -36.15942 6726 ft 281 kts 38°
2026-04-22 18:14 -9.71768 -36.14786 6373 ft 280 kts 38°
2026-04-22 18:14 -9.70200 -36.13620 6009 ft 278 kts 37°
2026-04-22 18:14 -9.68641 -36.12458 5660 ft 278 kts 38°
2026-04-22 18:15 -9.67073 -36.11289 5301 ft 279 kts 38°
2026-04-22 18:15 -9.65499 -36.10116 4958 ft 281 kts 37°
2026-04-22 18:15 -9.63931 -36.08945 4604 ft 280 kts 37°
2026-04-22 18:15 -9.62365 -36.07778 4237 ft 279 kts 38°
2026-04-22 18:16 -9.60816 -36.06626 3892 ft 278 kts 37°
2026-04-22 18:16 -9.59260 -36.05470 3547 ft 276 kts 37°
2026-04-22 18:16 -9.57712 -36.04319 3196 ft 275 kts 38°
2026-04-22 18:16 -9.56170 -36.03173 2863 ft 274 kts 38°
2026-04-22 18:17 -9.54670 -36.02059 2740 ft 257 kts 38°
2026-04-22 18:17 -9.53283 -36.01030 2645 ft 241 kts 38°
2026-04-22 18:17 -9.51978 -36.00060 2533 ft 230 kts 38°
2026-04-22 18:17 -9.50717 -35.99123 2446 ft 222 kts 38°
2026-04-22 18:18 -9.49489 -35.98175 2350 ft 220 kts 45°
2026-04-22 18:18 -9.48591 -35.96973 2271 ft 208 kts 67°
2026-04-22 18:18 -9.48185 -35.95624 2222 ft 194 kts 88°
2026-04-22 18:18 -9.48241 -35.94295 2224 ft 186 kts 106°
2026-04-22 18:19 -9.48489 -35.93000 2246 ft 186 kts 104°
2026-04-22 18:19 -9.48727 -35.91715 2234 ft 179 kts 104°
2026-04-22 18:19 -9.48949 -35.90521 2248 ft 166 kts 104°
2026-04-22 18:19 -9.49156 -35.89417 2122 ft 155 kts 104°
2026-04-22 18:20 -9.49350 -35.88386 1959 ft 145 kts 105°
2026-04-22 18:20 -9.49539 -35.87385 1780 ft 146 kts 103°
2026-04-22 18:20 -9.49728 -35.86380 1604 ft 145 kts 104°
2026-04-22 18:20 -9.49915 -35.85382 1414 ft 140 kts 105°
2026-04-22 18:21 -9.50099 -35.84407 1237 ft 142 kts 105°
2026-04-22 18:21 -9.50285 -35.83418 1054 ft 145 kts 104°
2026-04-22 18:21 -9.50473 -35.82413 834 ft 146 kts 103°
2026-04-22 18:21 -9.50660 -35.81407 623 ft 146 kts 102°
2026-04-22 18:22 -9.50846 -35.80386 429 ft 148 kts 102°
2026-04-22 18:22 -9.51028 -35.79425 388 ft 123 kts 103°
2026-04-22 18:22 -9.51159 -35.78755 382 ft 74 kts 101°
2026-04-22 18:22 -9.51216 -35.78443 382 ft 10 kts 100°
2026-04-22 18:23 -9.51237 -35.78381 382 ft 5 kts 86°
2026-04-22 18:23 -9.51226 -35.78383 382 ft 1 kts 312°
2026-04-22 18:23 -9.51225 -35.78401 382 ft 6 kts 277°
2026-04-22 18:24 -9.51183 -35.78620 381 ft 21 kts 283°
2026-04-22 18:24 -9.51155 -35.78770 382 ft 22 kts 280°
2026-04-22 18:24 -9.51212 -35.78871 383 ft 12 kts 134°
2026-04-22 18:25 -9.51276 -35.78817 383 ft 10 kts 174°
2026-04-22 18:25 -9.51298 -35.78856 383 ft 9 kts 262°
2026-04-22 18:25 -9.51287 -35.78931 384 ft 12 kts 281°
2026-04-22 18:26 -9.51349 -35.79093 385 ft 15 kts 279°
2026-04-22 18:26 -9.51370 -35.79154 386 ft 9 kts 196°
2026-04-22 18:26 -9.51411 -35.79164 386 ft 0 kts 191°